Cairns, Australia

3:47 PM AEST on May 23, 2018 (GMT +1000)
Cairns International

Weather History for YBCS - March, 2013

Change the Weather History Date:

Sunday, March 10, 2013

  Actual Average Record
Temperature  
Mean Temperature 80 °F -  
Max Temperature 86 °F 86 °F 91 °F (2004)
Min Temperature 74 °F 72 °F 69 °F (2001)
Cooling Degree Days 15    
Growing Degree Days 30 (Base 50)    
Moisture  
Dew Point 71 °F    
Average Humidity 74    
Maximum Humidity 100    
Minimum Humidity 58    
Precipitation  
Precipitation 0.01 in 0.49 in - ()
Sea Level Pressure  
Sea Level Pressure 29.80 in    
Wind  
Wind Speed 12 mph ()    
Max Wind Speed 23 mph    
Max Gust Speed 30 mph    
Visibility 7.1 miles    
Events Rain    
Averages and records for this station are not official NWS values.
T = Trace of Precipitation, MM = Missing Value Source: Averaged Metar Reports

Daily Weather History Graph

Daily Weather History Graph

Search for Another Location

Airport or City:

Astronomy

Mar. 10, 2013 Rise Set
Actual Time 6:18 AM AEST 6:35 PM AEST
Civil Twilight 5:57 AM AEST 6:57 PM AEST
Nautical Twilight 5:31 AM AEST 7:22 PM AEST
Astronomical Twilight 5:06 AM AEST 7:47 PM AEST
Moon 4:31 AM AEST (3/10) 5:15 PM AEST (3/10)
Length of Visible Light 13h 00m
Length of Day
12h 16m
Waning Crescent, 4% of the Moon is Illuminated
Mar 10
Waning Crescent
Mar 12
New
Mar 20
First Quarter
Mar 27
Full
Apr 3
Last Quarter

Hourly Weather History & Observations

Time (AEST) Temp. Heat Index Dew Point Humidity Pressure Visibility Wind Dir Wind Speed Gust Speed Precip Events Conditions
12:00 AM 76 °F - 72 °F 83% 29.85 in - South 11.5 mph - -   Overcast
12:00 AM 75.2 °F - 71.6 °F 89% 29.83 in 6.2 mi South 11.5 mph - N/A   Scattered Clouds
1:00 AM 74 °F - 72 °F 92% 29.84 in - South 13.8 mph - -  
1:00 AM 75.2 °F - 71.6 °F 89% 29.83 in 6.2 mi South 13.8 mph - N/A Rain Light Rain Showers
1:30 AM 75.2 °F - 69.8 °F 83% 29.80 in 6.2 mi SSW 8.1 mph - N/A   Mostly Cloudy
2:00 AM 75.2 °F - 69.8 °F 83% 29.80 in 6.2 mi South 8.1 mph - N/A   Scattered Clouds
2:30 AM 75.2 °F - 71.6 °F 89% 29.80 in 6.2 mi SSE 6.9 mph - N/A   Scattered Clouds
3:00 AM 74 °F - 72 °F 90% 29.79 in - SSE 8.1 mph - -  
3:00 AM 73.4 °F - 71.6 °F 94% 29.77 in 6.2 mi SSE 8.1 mph - N/A   Scattered Clouds
3:30 AM 75.2 °F - 73.4 °F 94% 29.77 in 6.2 mi SE 8.1 mph - N/A   Mostly Cloudy
4:00 AM 74 °F - 72 °F 94% 29.78 in - SE 6.9 mph - -  
4:00 AM 73.4 °F - 73.4 °F 100% 29.77 in 6.2 mi SE 6.9 mph - N/A   Mostly Cloudy
4:30 AM 75.2 °F - 71.6 °F 89% 29.77 in 6.2 mi South 3.5 mph - N/A   Mostly Cloudy
5:00 AM 75.2 °F - 71.6 °F 89% 29.77 in 6.2 mi SE 8.1 mph - N/A   Scattered Clouds
5:30 AM 77.0 °F - 69.8 °F 78% 29.77 in 6.2 mi SSE 8.1 mph - N/A   Mostly Cloudy
6:00 AM 76 °F - 70 °F 75% 29.79 in 16 mi SSE 9.2 mph - -   Partly Cloudy
6:00 AM 77.0 °F - 69.8 °F 78% 29.77 in 6.2 mi SSE 9.2 mph - N/A   Mostly Cloudy
6:30 AM 77.0 °F - 69.8 °F 78% 29.77 in 6.2 mi South 11.5 mph - N/A   Mostly Cloudy
7:00 AM 76 °F - 71 °F 78% 29.81 in - SSE 12.7 mph - -  
7:00 AM 77.0 °F - 69.8 °F 78% 29.80 in 6.2 mi SSE 12.7 mph - N/A   Mostly Cloudy
7:30 AM 77.0 °F - 69.8 °F 78% 29.80 in 6.2 mi South 12.7 mph - N/A   Mostly Cloudy
8:00 AM 78.8 °F - 69.8 °F 74% 29.80 in 6.2 mi South 10.4 mph - N/A   Scattered Clouds
8:30 AM 80.6 °F 84.6 °F 71.6 °F 74% 29.83 in 6.2 mi SSE 16.1 mph - N/A   Scattered Clouds
9:00 AM 81 °F - 71 °F 65% 29.84 in 16 mi SSE 17.3 mph - -   Partly Cloudy
9:00 AM 80.6 °F 84.6 °F 71.6 °F 74% 29.83 in 6.2 mi SSE 17.3 mph - N/A   Scattered Clouds
9:30 AM 82.4 °F 87.2 °F 71.6 °F 70% 29.83 in 6.2 mi SSE 13.8 mph - N/A   Scattered Clouds
10:00 AM 84 °F - 71 °F 58% 29.85 in - SSE 12.7 mph - -  
10:00 AM 84.2 °F 89.6 °F 71.6 °F 66% 29.83 in 6.2 mi SSE 12.7 mph - N/A   Scattered Clouds
10:27 AM 80.6 °F 84.6 °F 71.6 °F 74% 29.83 in 6.2 mi SE 23.0 mph - N/A   Scattered Clouds
10:30 AM 82.4 °F 88.2 °F 73.4 °F 74% 29.83 in 6.2 mi SE 20.7 mph - N/A   Scattered Clouds
11:00 AM 86.0 °F 91.8 °F 71.6 °F 62% 29.83 in 6.2 mi SE 21.9 mph - N/A   Scattered Clouds
11:13 AM 82.4 °F 88.2 °F 73.4 °F 74% 29.83 in 6.2 mi SSE 18.4 mph 29.9 mph N/A   Scattered Clouds
11:30 AM 80.6 °F 84.6 °F 71.6 °F 74% 29.83 in 6.2 mi SE 20.7 mph - N/A   Mostly Cloudy
12:00 PM 83 °F - 72 °F 62% 29.82 in 9 mi SE 16.1 mph - -   Mostly Cloudy
12:00 PM 82.4 °F 87.2 °F 71.6 °F 70% 29.80 in 6.2 mi SE 16.1 mph - N/A   Mostly Cloudy
12:30 PM 82.4 °F 87.2 °F 71.6 °F 70% 29.80 in 6.2 mi SE 18.4 mph - N/A   Mostly Cloudy
1:00 PM 84 °F - 72 °F 61% 29.81 in - South 13.8 mph - -  
1:00 PM 84.2 °F 90.9 °F 73.4 °F 70% 29.80 in 6.2 mi South 13.8 mph - N/A   Mostly Cloudy
1:30 PM 84.2 °F 89.6 °F 71.6 °F 66% 29.77 in 6.2 mi South 9.2 mph - N/A   Mostly Cloudy
2:00 PM 84.2 °F 89.6 °F 71.6 °F 66% 29.77 in 6.2 mi ESE 18.4 mph - N/A   Mostly Cloudy
2:30 PM 84.2 °F 88.4 °F 69.8 °F 62% 29.74 in 6.2 mi SSE 20.7 mph - N/A   Mostly Cloudy
3:00 PM 83 °F - 71 °F 60% 29.76 in 16 mi South 16.1 mph - - Rain Light Rain Showers
3:00 PM 82.4 °F 87.2 °F 71.6 °F 70% 29.74 in 6.2 mi South 16.1 mph - N/A   Mostly Cloudy
3:30 PM 82.4 °F 87.2 °F 71.6 °F 70% 29.74 in 6.2 mi South 13.8 mph - N/A   Scattered Clouds
4:00 PM 83 °F - 71 °F 58% 29.76 in - South 9.2 mph - -  
4:00 PM 82.4 °F 87.2 °F 71.6 °F 70% 29.74 in 6.2 mi South 9.2 mph - N/A   Scattered Clouds
4:30 PM 82.4 °F 86.3 °F 69.8 °F 66% 29.74 in 6.2 mi SE 16.1 mph - N/A   Scattered Clouds
5:00 PM 82.4 °F 87.2 °F 71.6 °F 70% 29.74 in 6.2 mi SE 17.3 mph - N/A   Scattered Clouds
5:30 PM 82.4 °F 87.2 °F 71.6 °F 70% 29.74 in 6.2 mi SE 15.0 mph - N/A   Scattered Clouds
6:00 PM 82 °F - 70 °F 58% 29.77 in 16 mi SE 17.3 mph - -   Partly Cloudy
6:00 PM 82.4 °F 86.3 °F 69.8 °F 66% 29.77 in 6.2 mi SE 17.3 mph - N/A   Scattered Clouds
6:30 PM 80.6 °F 83.9 °F 69.8 °F 70% 29.77 in 6.2 mi SE 12.7 mph - N/A   Mostly Cloudy
7:00 PM 80 °F - 70 °F 64% 29.80 in - SSE 13.8 mph - -  
7:00 PM 80.6 °F 83.9 °F 69.8 °F 70% 29.77 in 6.2 mi SSE 13.8 mph - N/A   Mostly Cloudy
7:30 PM 80.6 °F 83.9 °F 69.8 °F 70% 29.80 in 6.2 mi SSE 12.7 mph - N/A   Mostly Cloudy
8:00 PM 80.6 °F 83.9 °F 69.8 °F 70% 29.80 in 6.2 mi SSE 13.8 mph - N/A   Mostly Cloudy
8:30 PM 80.6 °F 83.9 °F 69.8 °F 70% 29.80 in 6.2 mi SSE 15.0 mph - N/A   Mostly Cloudy
9:00 PM 79 °F - 70 °F 67% 29.83 in 16 mi South 15.0 mph - -   Partly Cloudy
9:00 PM 78.8 °F - 69.8 °F 74% 29.83 in 6.2 mi South 15.0 mph - N/A   Mostly Cloudy
9:30 PM 78.8 °F - 69.8 °F 74% 29.83 in 6.2 mi South 15.0 mph - N/A   Mostly Cloudy
10:00 PM 78 °F - 69 °F 68% 29.84 in - South 12.7 mph - -  
10:00 PM 78.8 °F - 69.8 °F 74% 29.83 in 6.2 mi South 12.7 mph - N/A   Mostly Cloudy
10:30 PM 78.8 °F - 69.8 °F 74% 29.83 in 6.2 mi South 11.5 mph - N/A   Scattered Clouds
11:00 PM 78.8 °F - 68.0 °F 69% 29.83 in 6.2 mi South 10.4 mph - N/A   Mostly Cloudy
11:30 PM 78.8 °F - 68.0 °F 69% 29.83 in 6.2 mi South 10.4 mph - N/A   Partly Cloudy